Dewpoint
24 21 20 21 24 24 16 22 26 29 26 27 23 20 26 31 33 35 49 51 55 56 63 65 61 63 65 66 66 66 66 66 66 65 64 64 64 64 62 63 61 63 62 59
23 21 21 23 19 16 17 25 25 23 24 18 20 20 34 38 42 43 42 54 57 59 57 62 61 59 63 66 66 66 66 67 66 66 66 66 65 65 64 63 63 62 58 58
21 21 24 23 19 14 24 21 21 21 19 20 25 34 39 42 47 43 43 50 60 60 62 60 60 57 64 59 60 60 66 67 67 67 65 67 67 66 64 60 59 60 58 58
19 19 17 15 21 23 20 21 18 19 24 20 29 31 39 42 42 47 46 42 56 59 57 59 57 59 62 59 60 60 67 66 67 66 66 63 62 61 60 57 60 56 56 57
20 19 18 21 24 24 28 28 28 27 24 31 32 34 39 42 41 42 43 43 41 57 60 59 59 61 60 60 64 66 63 66 68 67 64 64 62 60 59 58 56 55 57 56
17 21 21 21 21 25 29 31 33 31 29 29 31 35 33 29 34 42 43 35 30 48 53 55 57 59 59 60 61 65 64 67 66 65 66 64 61 59 58 58 58 55 55 55
22 24 21 21 19 27 33 33 28 26 32 31 33 33 35 34 30 29 31 34 36 48 51 54 56 58 59 58 58 61 62 65 66 66 65 63 59 58 57 56 55 53 54 54
34 24 30 26 23 25 33 33 31 26 30 26 31 32 32 38 34 33 35 37 41 50 53 55 56 57 57 56 58 56 61 61 64 64 60 59 59 58 57 56 56 55 54 54
36 35 34 27 38 35 36 36 36 33 34 30 34 35 35 37 37 36 36 41 40 45 52 54 55 54 56 55 52 53 52 55 56 57 57 56 56 56 55 56 55 54 54 53
38 34 32 38 39 41 41 42 36 34 26 24 31 31 30 31 37 36 38 39 41 39 45 52 52 54 54 53 52 53 54 54 54 55 56 56 55 56 55 54 53 52 52 52
35 37 35 41 40 39 43 43 38 35 30 25 27 32 35 34 39 40 44 40 42 44 43 44 47 51 52 51 51 53 53 53 53 54 55 55 54 54 53 52 52 52 52 52
43 39 39 40 44 40 37 38 38 35 31 33 32 30 38 39 44 46 50 49 53 43 47 44 46 51 52 50 49 51 52 52 52 53 53 53 52 52 53 52 51 52 50 49
45 38 37 37 42 42 40 38 38 40 41 33 31 35 43 44 46 47 48 52 53 46 44 45 46 47 52 50 52 53 52 52 53 50 52 51 52 51 50 50 50 50 49 49
50 38 36 35 37 39 41 38 37 40 38 33 31 35 41 45 49 50 51 54 46 44 46 46 45 45 50 50 52 54 53 53 52 51 51 51 49 48 48 49 49 48 49 48
47 39 40 38 34 34 38 35 35 39 38 32 34 39 46 48 49 50 52 43 43 46 43 43 43 48 49 49 50 54 54 53 51 49 49 48 47 48 48 48 48 48 48 49
44 43 41 40 38 36 36 34 34 34 34 34 35 39 47 48 48 51 45 44 44 45 44 42 43 50 50 51 51 53 53 52 50 49 47 47 47 48 48 48 48 48 48 49
45 43 41 36 37 37 34 36 35 38 39 39 36 39 46 46 46 46 46 46 46 44 44 42 43 51 52 52 53 51 51 51 50 47 47 47 47 47 48 48 47 47 48 48
42 43 40 37 38 31 42 44 42 41 42 43 45 47 48 47 48 47 47 48 46 46 44 42 45 52 53 53 51 51 50 50 49 48 46 46 47 46 48 48 48 48 48 48
40 44 42 39 36 38 40 44 43 41 44 46 44 45 48 48 48 48 50 47 47 46 44 44 49 54 54 53 52 51 50 50 49 48 47 47 48 49 47 48 48 48 48 48
48 46 42 39 36 37 43 48 49 48 42 47 48 48 48 47 45 47 46 48 47 46 45 46 53 54 54 52 52 50 50 49 48 48 47 48 48 48 48 48 48 48 49 49
46 44 40 40 42 44 48 48 48 40 42 48 50 50 48 47 48 48 48 48 46 45 45 47 54 53 54 53 51 50 50 49 49 48 48 48 47 46 47 48 49 49 48 49
45 43 41 43 40 39 47 47 44 50 48 47 50 51 48 48 48 46 48 48 46 44 46 47 53 53 53 51 50 50 50 50 48 48 47 46 47 47 48 48 49 48 48 48
43 44 43 42 40 44 46 45 52 48 47 52 49 48 47 47 46 47 48 47 47 45 48 48 52 53 52 50 49 50 51 49 48 47 48 46 47 48 48 47 48 48 48 48
43 45 41 37 37 44 46 47 52 49 51 52 49 48 47 46 46 48 48 47 46 44 48 48 50 52 51 49 50 51 50 50 50 48 49 47 46 46 49 46 47 45 44 45
39 39 39 39 41 43 47 49 52 50 49 49 49 48 48 47 47 47 46 45 43 44 50 50 52 52 50 49 50 50 50 50 50 49 46 46 46 45 47 45 43 45 41 42
41 37 39 41 42 43 46 50 51 49 48 46 48 47 48 48 47 45 45 45 46 50 50 50 50 51 50 48 50 50 50 50 49 48 46 46 46 46 47 47 46 41 41 41
Lifted_Index
1 1 -0 -0 -0 -0 -0 -0 -0 -0 -0 0 1 0 0 -0 -0 -1 -1 -2 -3 -3 -3 -3 -3 -5 -6 -7 -7 -7 -7 -7 -7 -6 -5 -5 -5 -4 -3 -3 -3 -2 -1 -1
1 0 -0 -0 -0 -0 -0 -0 0 0 1 1 1 0 -0 -1 -1 -1 -2 -3 -3 -3 -3 -3 -3 -4 -5 -5 -4 -5 -6 -7 -7 -7 -6 -6 -5 -5 -4 -3 -3 -2 -1 -1
0 -0 -0 -0 -0 -0 -0 0 1 1 1 1 0 -0 -1 -1 -1 -1 -1 -2 -3 -3 -3 -2 -2 -2 -2 -2 -0 -2 -5 -8 -8 -7 -7 -6 -6 -5 -4 -3 -2 -1 -1 -0
-0 -0 -0 -0 -0 -0 0 1 1 1 1 0 -0 -0 -1 -0 -0 -0 -1 -1 -2 -3 -3 -2 -1 -1 -1 -0 0 -1 -4 -7 -8 -7 -7 -7 -6 -5 -3 -2 -1 -1 -0 0
-0 -0 -0 0 0 0 1 1 1 1 0 -0 -0 -0 -0 0 0 -0 -0 -1 -2 -3 -3 -2 -1 -1 -0 -0 -1 -2 -4 -6 -8 -7 -7 -7 -6 -4 -3 -2 -1 -0 -0 0
-0 -0 -0 0 1 1 1 1 1 0 0 -0 -0 -0 0 1 1 0 0 0 -1 -1 -2 -2 -1 -1 -0 -0 -2 -3 -4 -6 -7 -7 -7 -6 -5 -4 -2 -1 -1 -0 0 0
-0 -0 -0 0 0 1 1 1 0 0 -0 -0 -0 -0 0 1 1 1 1 1 0 -1 -1 -1 -0 -0 0 0 -1 -3 -5 -6 -6 -6 -5 -5 -4 -3 -2 -1 -0 0 0 0
-0 -0 -0 -0 0 0 1 1 0 0 -0 -0 0 0 0 0 0 0 0 0 -0 -1 -1 -0 0 0 1 0 -1 -2 -3 -4 -4 -4 -3 -2 -2 -1 -1 -0 0 1 1 1
-0 -0 -0 -0 -0 0 0 1 0 0 0 0 1 1 1 0 0 0 -0 -0 -1 -1 -0 -0 0 0 -0 -1 -1 -1 -1 -1 -2 -2 -1 -1 -1 -1 -0 0 0 1 2 2
0 -0 -0 -1 -0 0 0 0 0 0 0 0 0 1 1 0 -0 -0 -0 -0 -0 0 0 -0 -0 -1 -1 -1 -1 -0 -0 -0 -0 0 0 0 0 0 0 1 1 2 3 4
-0 -0 -0 -0 -0 0 0 -0 -0 -0 -0 -0 -0 -0 0 0 -0 -0 -0 -0 -0 -0 -0 -0 -1 -1 -1 -0 -0 -0 0 0 1 1 1 1 1 1 1 1 2 3 4 5
-0 -0 -0 -0 0 0 0 -0 -0 -1 -1 -1 -1 -1 -0 -0 -0 -0 -0 -0 -0 -1 -1 -1 -1 -1 -0 -0 0 1 1 1 1 1 1 1 1 1 2 3 4 5 5 6
-0 -0 0 -0 -0 0 0 -0 -0 -1 -1 -1 -1 -1 -1 -1 -0 -1 -1 -1 -1 -1 -1 -1 -0 -0 0 1 1 1 1 1 2 2 2 2 2 3 4 5 5 6 6 6
-0 -0 -0 -0 -0 -0 -0 -0 -1 -1 -0 -0 -1 -1 -1 -1 -0 -1 -1 -1 -1 -1 -1 -0 -0 0 1 1 2 2 2 2 2 2 2 3 3 4 5 6 6 6 6 6
-1 -1 -1 -1 -1 -0 -1 -1 -1 -1 -0 0 -0 -1 -1 -0 -1 -1 -1 -1 -1 -0 -0 0 1 1 2 2 2 2 2 2 2 3 3 3 4 5 6 6 6 6 6 5
-1 -1 -1 -1 -1 -1 -1 -1 -1 -0 -0 0 -0 -0 -0 -1 -1 -1 -1 -1 -1 -0 0 1 2 2 2 2 2 2 3 3 3 3 3 4 5 6 6 6 6 5 5 5
-2 -2 -1 -1 -1 -1 -1 -1 -0 -0 -0 -0 -0 -1 -1 -1 -1 -1 -1 -0 -0 0 1 2 2 2 2 2 2 3 3 3 3 3 4 5 6 6 6 5 5 5 4 4
-2 -1 -1 -1 -1 -1 -1 -1 -1 -1 -1 -1 -1 -1 -1 -1 -0 -0 -0 0 1 1 2 3 3 2 2 2 2 3 3 3 3 4 5 5 6 6 6 5 5 4 4 4
-1 -1 -1 -1 -1 -1 -1 -1 -1 -1 -1 -1 -1 -1 -1 -1 -0 0 0 1 1 2 3 3 3 2 2 2 3 3 3 3 4 4 5 6 6 6 5 5 5 4 4 4
-1 -1 -1 -1 -0 -1 -1 -1 -1 -2 -2 -1 -1 -1 -1 -1 -0 1 1 2 2 3 3 3 2 2 2 3 3 3 4 4 4 5 6 6 6 6 5 5 4 4 4 4
-1 -1 -0 -0 -0 -0 -0 -1 -2 -2 -2 -1 -1 -1 -1 -0 0 1 2 2 2 3 3 3 3 2 3 3 4 4 4 4 5 5 6 6 6 6 5 4 4 4 4 4
-1 -1 -0 -0 0 0 -0 -0 -1 -2 -2 -1 -1 -1 -0 0 1 2 2 3 3 3 4 3 3 3 3 4 4 4 4 4 5 6 6 6 6 6 5 5 4 4 4 4
-2 -1 -1 -0 0 0 -0 -1 -1 -1 -1 -1 -1 -0 0 1 1 2 3 3 3 4 4 3 3 3 4 4 4 4 4 5 5 6 6 6 6 6 6 5 5 5 4 4
-1 -1 -0 0 0 0 -0 -1 -1 -1 -1 -1 -0 0 1 1 2 3 3 3 4 4 4 3 3 3 4 5 5 5 5 5 5 5 6 7 7 6 6 6 6 6 6 5
-1 -0 0 1 1 0 -0 -1 -1 -1 -0 -0 0 1 1 2 2 3 4 4 4 4 4 3 3 3 4 5 5 5 5 5 5 6 7 7 7 7 6 6 6 6 6 6
-0 0 0 1 1 0 -0 -1 -1 -0 0 1 1 1 1 2 2 3 4 5 4 4 3 3 3 4 4 5 5 5 5 5 6 6 7 7 7 6 6 6 6 6 6 6